Regional Weather Roundup
Issued by NWS

Home | Current Version | Previous Version | Graphics & Text | Print | Product List | Glossary Off
Versions: 1 2 3 4 5 6 7 8 9 10 11 12 13 14 15 16 17 18 19 20 21 22 23 24 25 26 27 28 29 30 31 32 33 34 35 36 37 38 39 40 41 42 43 44 45 46 47 48 49 50

000
ASUS43 KMKX 291700
RWRWI

WISCONSIN REGIONAL WEATHER ROUNDUP
NATIONAL WEATHER SERVICE MILWAUKEE/SULLIVAN WI
1200 PM CDT FRI AUG 29 2014

NOTE: "FAIR" INDICATES FEW OR NO CLOUDS BELOW 12,000 FEET WITH NO
SIGNIFICANT WEATHER AND/OR OBSTRUCTIONS TO VISIBILITY.

WIZ001-002-006>008-014>016-023>028-291800-
NORTHWEST WISCONSIN

CITY           SKY/WX    TMP DP  RH WIND       PRES   REMARKS
SUPERIOR ARPT  LGT RAIN  63  63  98 N3        29.79S
ASHLAND        LGT RAIN  64  62  93 S6        29.81F
HAYWARD        CLOUDY    63  62  97 S8        29.83F
SIREN          HVY RAIN  65  64  96 SE6       29.81S
RICE LAKE      CLOUDY    66  64  93 SE6       29.85F FOG
LADYSMITH      RAIN      66  65  94 SE8       29.88F
EAU CLAIRE     NOT AVBL
MENOMONIE      PTSUNNY   74  69  83 SE9       29.82F
NEW RICHMOND   CLOUDY    73  69  85 S7        29.81F
OSCEOLA        CLOUDY    72  71  98 S8        29.82F
$$

WIZ003>005-009-010-017-018-291800-
NORTH CENTRAL WISCONSIN

CITY           SKY/WX    TMP DP  RH WIND       PRES   REMARKS
WOODRUFF       CLOUDY    63  61  94 S9        29.90F FOG
RHINELANDER    CLOUDY    62  61  96 S7        29.91F FOG
EAGLE RIVER    CLOUDY    62  62 100 SE5       29.91F
LAND O LAKES   CLOUDY    61  61  98 S3        29.92F FOG
PHILLIPS       LGT RAIN  64  63  97 S8        29.88S
TOMAHAWK       LGT RAIN  62  61  96 CALM      29.91F VSB 1
MEDFORD        CLOUDY    64  64  99 S8        29.90F FOG
MERRILL        LGT RAIN  63  63 100 S3        29.91F
$$

WIZ029-030-035-036-043>047-291800-
CENTRAL WISCONSIN

CITY           SKY/WX    TMP DP  RH WIND       PRES   REMARKS
WAUSAU         CLOUDY    65  64  97 SE7       29.89F FOG
MOSINEE        FOG       64  64 100 S7        29.92  VSB 1
MARSHFIELD     CLOUDY    70  67  90 S10       29.89F FOG
STEVENS POINT  CLOUDY    67  65  92 S7        29.91F FOG
WAUPACA        CLOUDY    73  69  87 S7        29.91F FOG
WAUTOMA        CLOUDY    73  70  88 S6        29.91S
WISC RAPIDS    CLOUDY    71  67  87 S6        29.91S
CAMP DOUGLAS   PTSUNNY   77  73  88 S8        29.88F
$$

WIZ011>013-019>022-031-037>040-048>050-291800-
NORTHEAST WISCONSIN

CITY           SKY/WX    TMP DP  RH WIND       PRES   REMARKS
ANTIGO         LGT RAIN  62  62 100 SE7       29.93F VSB 1/4
STURGEON BAY   CLOUDY    68  64  88 S17G24    29.93F
GREEN BAY      PTSUNNY   77  71  82 S10       29.89F
MANITOWOC      PTSUNNY   73  70  88 S20G26    29.93F
APPLETON       PTSUNNY   75  70  83 S14       29.91F
CLINTONVILLE   CLOUDY    70  66  88 SW6       29.91S
OSHKOSH        MOSUNNY   80  70  71 S15       29.90F HX  83
$$

WIZ032>034-041-042-053>061-291800-
SOUTHWEST WISCONSIN

CITY           SKY/WX    TMP DP  RH WIND       PRES   REMARKS
LA CROSSE      MOSUNNY   80  70  71 S15       29.84F HX  83
SPARTA         MOSUNNY   77  66  69 S10       29.87F
VIROQUA        CLOUDY    73  72  95 S8        29.89S
BOSCOBEL       SUNNY     83  69  62 S8        29.86F HX  86
PRAIRIE DU CHI MOSUNNY   80  68  67 SE5       29.85F HX  83
PLATTEVILLE    FAIR      79  72  78 S10       29.91F HX  82
$$

WIZ056-057-062-063-064-067-068-291800-
SOUTH CENTRAL WISCONSIN

CITY           SKY/WX    TMP DP  RH WIND       PRES   REMARKS
BARABOO/DELLS  MOSUNNY   78  67  70 S10       29.90S HX  80
LONE ROCK      MOSUNNY   83  70  64 SW8       29.89F HX  87
WATERTOWN      MOSUNNY   80  71  74 S12G21    29.92F HX  83
MADISON        MOSUNNY   80  69  69 S15       29.91F HX  83
MIDDLETON      PTSUNNY   80  69  68 S9        29.92F HX  82
MONROE         PTSUNNY   79  70  73 S15G21    29.93F HX  81
JANESVILLE     PTSUNNY   81  70  69 S15       29.93F HX  84
$$

WIZ051-052-058>065-066-070>072-291800-
SOUTHEAST WISCONSIN

CITY           SKY/WX    TMP DP  RH WIND       PRES   REMARKS
MILWAUKEE      PTSUNNY   73  69  87 S12       29.95F
WAUKESHA       MOSUNNY   75  70  83 S12       29.97S
MILWAUKEE/TIMM MOSUNNY   75  66  73 S12G17    29.95F
RACINE         PTSUNNY   73  69  87 S12       29.98F
BURLINGTON     PTSUNNY   75  71  87 S5        29.95F
KENOSHA        PTSUNNY   79  73  82 S9        29.96F HX  82
FOND DU LAC    SUNNY     81  69  67 S17       29.90F HX  84
SHEBOYGAN      MOSUNNY   78  70  76 S12       29.93F HX  80
WEST BEND      SUNNY     79  64  61 S14G20    29.94F HX  81
JUNEAU         MOSUNNY   79  69  73 S16       29.94S HX  81
$$

LSZ147-162-291800-
LAKE SUPERIOR

STATION/POSITION TIME  TEMP    WIND        PRES    WAVE
                       AIR SEA DIR/SP/G            HT/PER
                 (UTC) (F)     (DEG/KT/KT) (MB)    (FT/S)
W MID LAKE BUOY  1550   59 58  100/ 10/ 12 1010.4F   1/ 3
DEVILS ISLAND    1600   61     150/  6/  9 1010.1S
PORT WING        1640   64     240/  2/  6 1009.1F
SAXON HARBOR     1600   65     200/  3/  8 1009.8F
$$

LMZ867-665-643>646-291800-
LAKE MICHIGAN

STATION/POSITION TIME  TEMP    WIND        PRES    WAVE
                       AIR SEA DIR/SP/G            HT/PER
                 (UTC) (F)     (DEG/KT/KT) (MB)    (FT/S)
N MID LAKE BUOY  1550   63 65  160/ 16/ 17 1014.5F   3/ 4
NORTHPORT PIER   1600   65     150/  9/ 12 1014.2F
SISTER BAY       1556   64     180/ 13/ 15   N/A
KEWAUNEE LAKESHO 1600   67     170/ 15/ 17 1013.3F
SHEBOYGAN LAKESH 1600   69 69  170/ 16/ 18 1014.0F
ATWATER BUOY     1600   70     160/ 10/ 12 1015.8R
MILWAUKEE LAKESH 1600   71     180/  8/ 10   N/A
S MID LAKE BUOY  1550   69 69  170/ 17/ 19 1015.4F   4/ 5
KENOSHA   LAKESH 1600   72     160/ 13/ 15 1014.9R
$$

TC  - TEMPERATURE IN CELSIUS
VSB - VISIBILITY IN STATUTE MILES
WCI - WIND CHILL INDEX
HX  - HEAT INDEX



USA.gov is the U.S. government's official web portal to all federal, state and local government web resources and services.